TimeCDT,TemperatureF,Dew PointF,Humidity,Sea Level PressureIn,VisibilityMPH,Wind Direction,Wind SpeedMPH,Gust SpeedMPH,PrecipitationIn,Events,Conditions,WindDirDegrees,DateUTC
12:15 AM,78.8,75.2,89,29.87,10.0,SSE,10.4,-,N/A,,Overcast,150,2013-05-20 05:15:00
12:35 AM,78.8,78.3,98,29.87,10.0,SSE,10.4,-,N/A,,Overcast,150,2013-05-20 05:35:00
12:55 AM,78.6,78.6,100,29.86,10.0,SE,9.2,-,N/A,,Overcast,140,2013-05-20 05:55:00
1:15 AM,78.4,78.4,100,29.85,10.0,SE,11.5,-,N/A,,Overcast,140,2013-05-20 06:15:00
1:35 AM,78.3,78.3,100,29.85,10.0,SE,11.5,-,N/A,,Overcast,140,2013-05-20 06:35:00
1:55 AM,77.9,77.9,100,29.85,7.0,SE,9.2,-,N/A,,Overcast,140,2013-05-20 06:55:00
2:15 AM,77.9,77.9,100,29.85,7.0,SSE,9.2,-,N/A,,Overcast,150,2013-05-20 07:15:00
2:35 AM,77.9,77.9,100,29.84,7.0,SSE,9.2,-,N/A,,Overcast,150,2013-05-20 07:35:00
2:55 AM,78.1,78.1,100,29.84,10.0,SSE,8.1,-,N/A,,Overcast,150,2013-05-20 07:55:00
3:15 AM,78.3,78.3,100,29.84,10.0,SE,10.4,16.1,N/A,,Overcast,140,2013-05-20 08:15:00
3:35 AM,78.3,78.3,100,29.84,7.0,SSE,10.4,-,N/A,,Overcast,150,2013-05-20 08:35:00
3:55 AM,78.3,78.3,100,29.83,7.0,SSE,11.5,-,N/A,,Overcast,150,2013-05-20 08:55:00
4:15 AM,78.3,78.3,100,29.83,7.0,SSE,12.7,-,N/A,,Overcast,150,2013-05-20 09:15:00
4:35 AM,78.4,78.4,100,29.83,7.0,SSE,10.4,-,N/A,,Overcast,150,2013-05-20 09:35:00
4:55 AM,78.4,78.4,100,29.84,7.0,SSE,8.1,-,N/A,,Overcast,150,2013-05-20 09:55:00
5:15 AM,78.4,77.5,97,29.84,7.0,SSE,10.4,-,N/A,,Overcast,160,2013-05-20 10:15:00
5:35 AM,78.4,76.1,92,29.84,7.0,SSE,12.7,-,N/A,,Overcast,160,2013-05-20 10:35:00
5:55 AM,78.6,74.8,88,29.84,7.0,SSE,13.8,-,N/A,,Overcast,160,2013-05-20 10:55:00
6:15 AM,78.3,76.5,94,29.85,7.0,SSE,10.4,-,N/A,,Overcast,150,2013-05-20 11:15:00
6:35 AM,77.0,77.0,100,29.85,7.0,SSE,10.4,-,N/A,,Overcast,150,2013-05-20 11:35:00
6:55 AM,78.1,77.9,99,29.86,7.0,SE,11.5,-,N/A,,Overcast,140,2013-05-20 11:55:00
7:15 AM,77.9,77.9,100,29.86,7.0,SSE,10.4,18.4,N/A,,Overcast,150,2013-05-20 12:15:00
7:35 AM,78.3,77.0,96,29.87,5.0,SSE,10.4,-,N/A,,Overcast,150,2013-05-20 12:35:00
7:55 AM,78.6,74.8,88,29.87,7.0,SE,11.5,16.1,N/A,,Overcast,140,2013-05-20 12:55:00
8:15 AM,78.8,74.3,86,29.88,7.0,SSE,12.7,16.1,N/A,,Overcast,150,2013-05-20 13:15:00
8:35 AM,79.2,73.8,83,29.88,7.0,SSE,10.4,17.3,N/A,,Mostly Cloudy,150,2013-05-20 13:35:00
8:55 AM,79.7,73.4,81,29.88,10.0,SSE,11.5,20.7,N/A,,Mostly Cloudy,150,2013-05-20 13:55:00
9:15 AM,80.1,73.6,81,29.88,10.0,SE,13.8,20.7,N/A,,Mostly Cloudy,140,2013-05-20 14:15:00
9:35 AM,80.8,73.6,79,29.89,10.0,SSE,13.8,23.0,N/A,,Overcast,150,2013-05-20 14:35:00
9:55 AM,81.7,73.6,76,29.89,10.0,SSE,13.8,17.3,N/A,,Overcast,160,2013-05-20 14:55:00
10:15 AM,82.9,73.4,73,29.89,10.0,SSE,17.3,21.9,N/A,,Mostly Cloudy,160,2013-05-20 15:15:00
10:35 AM,83.3,73.6,72,29.89,10.0,SSE,18.4,24.2,N/A,,Mostly Cloudy,160,2013-05-20 15:35:00
10:55 AM,83.5,73.6,72,29.90,10.0,SSE,12.7,21.9,N/A,,Mostly Cloudy,160,2013-05-20 15:55:00
11:15 AM,84.6,74.1,71,29.89,10.0,SSE,13.8,19.6,N/A,,Scattered Clouds,150,2013-05-20 16:15:00
11:35 AM,85.1,73.8,69,29.89,10.0,SSE,16.1,20.7,N/A,,Scattered Clouds,160,2013-05-20 16:35:00
11:55 AM,85.6,73.9,68,29.89,10.0,SSE,19.6,24.2,N/A,,Scattered Clouds,150,2013-05-20 16:55:00
12:15 PM,86.0,73.9,67,29.89,10.0,SSE,15.0,-,N/A,,Scattered Clouds,150,2013-05-20 17:15:00
12:35 PM,86.2,73.8,66,29.88,10.0,SSE,18.4,-,N/A,,Scattered Clouds,160,2013-05-20 17:35:00
12:55 PM,86.2,73.9,67,29.88,10.0,SSE,16.1,20.7,N/A,,Scattered Clouds,160,2013-05-20 17:55:00
1:15 PM,86.2,74.5,68,29.87,10.0,SSE,13.8,20.7,N/A,,Mostly Cloudy,150,2013-05-20 18:15:00
1:35 PM,86.4,74.5,68,29.87,10.0,SE,15.0,-,N/A,,Mostly Cloudy,140,2013-05-20 18:35:00
1:55 PM,86.4,74.7,68,29.86,10.0,SE,13.8,18.4,N/A,,Mostly Cloudy,130,2013-05-20 18:55:00
2:15 PM,86.9,74.5,66,29.85,10.0,SE,15.0,20.7,N/A,,Mostly Cloudy,140,2013-05-20 19:15:00
2:35 PM,87.1,74.3,66,29.85,10.0,SE,16.1,23.0,N/A,,Mostly Cloudy,130,2013-05-20 19:35:00
2:55 PM,86.5,74.3,67,29.84,10.0,ESE,17.3,23.0,N/A,,Mostly Cloudy,120,2013-05-20 19:55:00
3:15 PM,85.8,74.3,68,29.84,10.0,SE,12.7,18.4,N/A,,Mostly Cloudy,130,2013-05-20 20:15:00
3:35 PM,85.3,74.3,70,29.84,10.0,SE,12.7,19.6,N/A,,Overcast,140,2013-05-20 20:35:00
3:55 PM,84.9,74.1,70,29.84,10.0,SE,12.7,19.6,N/A,,Overcast,130,2013-05-20 20:55:00
4:15 PM,84.4,74.5,72,29.83,10.0,SE,15.0,18.4,N/A,,Overcast,140,2013-05-20 21:15:00
4:35 PM,84.0,74.7,73,29.82,10.0,SE,12.7,18.4,N/A,,Overcast,140,2013-05-20 21:35:00
4:55 PM,83.5,74.5,74,29.81,10.0,SE,16.1,-,N/A,,Overcast,130,2013-05-20 21:55:00
5:15 PM,83.5,74.7,75,29.81,10.0,SE,11.5,-,N/A,,Overcast,140,2013-05-20 22:15:00
5:35 PM,82.6,75.0,78,29.80,10.0,SE,11.5,-,N/A,,Overcast,130,2013-05-20 22:35:00
5:55 PM,81.7,75.0,80,29.80,10.0,SE,13.8,-,N/A,,Overcast,140,2013-05-20 22:55:00
6:15 PM,81.0,75.0,82,29.80,10.0,SE,9.2,-,N/A,,Overcast,140,2013-05-20 23:15:00
6:35 PM,80.8,74.8,82,29.78,10.0,SE,11.5,-,N/A,,Overcast,140,2013-05-20 23:35:00
6:55 PM,80.6,74.8,83,29.78,7.0,SE,11.5,-,N/A,,Overcast,130,2013-05-20 23:55:00
7:15 PM,80.4,75.2,84,29.78,7.0,SE,12.7,16.1,N/A,,Overcast,140,2013-05-21 00:15:00
7:35 PM,80.1,75.2,85,29.78,7.0,SE,9.2,-,N/A,,Overcast,140,2013-05-21 00:35:00
7:55 PM,79.9,75.2,86,29.78,7.0,SE,12.7,19.6,N/A,,Overcast,140,2013-05-21 00:55:00
8:15 PM,79.7,75.2,86,29.79,7.0,SE,13.8,-,N/A,,Overcast,140,2013-05-21 01:15:00
8:35 PM,79.5,75.2,87,29.80,7.0,SE,12.7,-,N/A,,Overcast,130,2013-05-21 01:35:00
8:55 PM,79.2,75.6,89,29.79,7.0,SE,11.5,17.3,N/A,,Overcast,130,2013-05-21 01:55:00
9:15 PM,79.2,75.6,89,29.79,7.0,SE,13.8,-,N/A,,Overcast,140,2013-05-21 02:15:00
9:35 PM,79.2,75.0,87,29.80,7.0,SSE,10.4,17.3,N/A,,Overcast,150,2013-05-21 02:35:00
9:55 PM,79.2,75.2,88,29.80,7.0,SE,10.4,-,N/A,,Overcast,140,2013-05-21 02:55:00
10:15 PM,79.2,75.0,87,29.82,7.0,SSE,12.7,21.9,N/A,,Overcast,150,2013-05-21 03:15:00
10:35 PM,79.3,75.2,87,29.83,7.0,SE,16.1,19.6,N/A,,Overcast,140,2013-05-21 03:35:00
10:55 PM,79.3,75.2,87,29.84,7.0,SSE,9.2,18.4,N/A,,Overcast,150,2013-05-21 03:55:00
11:15 PM,79.3,75.4,88,29.84,7.0,SSE,13.8,19.6,N/A,,Overcast,150,2013-05-21 04:15:00
11:35 PM,79.3,75.4,88,29.84,7.0,SSE,11.5,-,N/A,,Overcast,150,2013-05-21 04:35:00
11:55 PM,79.3,75.2,87,29.85,7.0,SSE,11.5,17.3,N/A,,Overcast,160,2013-05-21 04:55:00